Terug naar catalogus

THOR ABLESTAR DEB

ActiefLEO
NORAD 145·DEBRIS·🇺🇸 United States

Gelanceerd Jun 29, 1961 vanaf Cape Canaveral Space Force Station

Loading…

Volgende Passages (komende 24 uur)

TLE

VersSource: Space-Track

Epoch: Sep 14, 2026, 10:19 UTC

1 00145U 61015AF  26257.43045948  .00000149  00000-0  14238-3 0  9997
2 00145  66.9265 161.4686 0068038 233.5150 125.9656 14.03337240329232

Volg THOR ABLESTAR DEB in realtime met AllMySat

Download on the App Store